Weather History for Stafford, VA

Change the Weather History Date:

Saturday, December 8, 2012

  Actual Average (KNYG) Record (KNYG)
Temperature  
Mean Temperature 54 °F -  
Max Temperature 61 °F 47 °F 63 °F (2004)
Min Temperature 46 °F 32 °F 21 °F (2010)
Degree Days  
Heating Degree Days 12    
Growing Degree Days 4 (Base 50)    
Moisture  
Dew Point 50 °F    
Average Humidity 94    
Maximum Humidity 100    
Minimum Humidity 76    
Precipitation  
Precipitation 0.15 in - - ()
Sea Level Pressure  
Sea Level Pressure 29.98 in    
Wind  
Wind Speed 2 mph (SSW)    
Max Wind Speed 10 mph    
Max Gust Speed -    
Visibility 6 miles    
Events      
Averages and records for this station are not official NWS values.
T = Trace of Precipitation, MM = Missing Value Source: NWS Daily Summary

Daily Weather History Graph

Daily Weather History Graph

Search for Another Location

Airport:

Trip Planner

Search our weather history database for the weather conditions in past years. The results will help you decide how hot, cold, wet, or windy it might be!

Date:

Astronomy

Dec. 08, 2012 Rise Set
Actual Time 7:14 AM EST 4:49 PM EST
Civil Twilight 6:45 AM EST 5:18 PM EST
Nautical Twilight 6:12 AM EST 5:51 PM EST
Astronomical Twilight 5:40 AM EST 6:23 PM EST
Moon 1:40 AM EST (12/8) 1:14 PM EST (12/8)
Length of Visible Light 10h 33m
Length of Day
9h 34m
Waning Crescent, 28% of the Moon is Illuminated
Dec 8
Waning Crescent
Dec 13
New
Dec 20
First Quarter
Dec 28
Full
Jan 4
Last Quarter

Hourly Weather History & Observations

Time (EST) Temp. Dew Point Humidity Pressure Visibility Wind Dir Wind Speed Gust Speed Precip Events Conditions
12:15 AM 48.7 °F 48.4 °F 99% 30.01 in 4.0 mi Calm Calm - N/A   Overcast
12:35 AM 48.7 °F 48.4 °F 99% 30.00 in 4.0 mi Calm Calm - N/A   Overcast
12:55 AM 48.7 °F 48.4 °F 99% 30.00 in 4.0 mi Calm Calm - N/A   Overcast
1:15 AM 48.7 °F 48.2 °F 98% 29.99 in 4.0 mi Calm Calm - N/A   Overcast
1:35 AM 48.7 °F 48.4 °F 99% 29.98 in 4.0 mi Calm Calm - N/A   Overcast
1:55 AM 48.7 °F 48.4 °F 99% 29.99 in 4.0 mi South 3.5 mph - N/A   Overcast
2:15 AM 48.7 °F 48.4 °F 99% 29.98 in 4.0 mi Calm Calm - N/A   Overcast
2:35 AM 49.1 °F 48.6 °F 98% 29.97 in 4.0 mi SSE 3.5 mph - N/A   Overcast
2:55 AM 49.1 °F 48.6 °F 98% 29.97 in 4.0 mi Calm Calm - N/A   Overcast
3:15 AM 49.1 °F 48.6 °F 98% 29.97 in 3.0 mi Calm Calm - N/A   Overcast
3:35 AM 50.0 °F 49.5 °F 98% 29.96 in 5.0 mi Calm Calm - N/A   Overcast
3:55 AM 50.0 °F 49.6 °F 99% 29.96 in 4.0 mi SSW 3.5 mph - N/A   Overcast
4:15 AM 50.4 °F 50.2 °F 99% 29.95 in 2.5 mi Calm Calm - N/A   Overcast
4:35 AM 50.5 °F 50.4 °F 99% 29.95 in 2.5 mi SW 4.6 mph - N/A   Overcast
4:55 AM 50.5 °F 50.4 °F 99% 29.95 in 4.0 mi SW 3.5 mph - N/A   Overcast
5:15 AM 50.5 °F 50.4 °F 99% 29.95 in 4.0 mi WSW 4.6 mph - N/A   Overcast
5:35 AM 50.5 °F 50.4 °F 99% 29.95 in 4.0 mi WSW 3.5 mph - N/A   Overcast
5:55 AM 50.5 °F 50.4 °F 99% 29.96 in 4.0 mi Calm Calm - N/A   Overcast
6:15 AM 50.5 °F 50.2 °F 99% 29.96 in 5.0 mi Calm Calm - N/A   Overcast
6:35 AM 50.5 °F 50.4 °F 99% 29.96 in 4.0 mi Calm Calm - N/A   Overcast
6:55 AM 50.5 °F 50.2 °F 99% 29.97 in 7.0 mi WSW 4.6 mph - N/A   Overcast
7:15 AM 50.4 °F 50.0 °F 99% 29.97 in 7.0 mi Calm Calm - N/A   Overcast
7:35 AM 50.4 °F 50.0 °F 99% 29.97 in 4.0 mi Calm Calm - N/A   Overcast
7:55 AM 50.0 °F 49.8 °F 99% 29.98 in 4.0 mi West 3.5 mph - N/A   Overcast
8:15 AM 50.2 °F 50.0 °F 99% 29.99 in 4.0 mi West 3.5 mph - N/A   Overcast
8:35 AM 50.2 °F 49.8 °F 99% 29.99 in 3.0 mi West 3.5 mph - N/A   Overcast
8:55 AM 50.0 °F 49.5 °F 98% 29.99 in 3.0 mi West 3.5 mph - N/A   Overcast
9:15 AM 50.2 °F 50.0 °F 99% 30.00 in 3.0 mi Calm Calm - N/A   Overcast
9:35 AM 50.5 °F 50.2 °F 99% 30.00 in 2.5 mi SSW 3.5 mph - N/A   Overcast
9:55 AM 50.5 °F 50.0 °F 98% 30.00 in 2.0 mi SSW 3.5 mph - N/A   Overcast
10:15 AM 50.2 °F 49.8 °F 99% 30.01 in 1.5 mi Calm Calm - N/A   Overcast
10:35 AM 50.5 °F 50.0 °F 98% 30.01 in 5.0 mi SSW 3.5 mph - N/A   Overcast
10:55 AM 51.3 °F 50.2 °F 96% 30.00 in 7.0 mi SW 3.5 mph - N/A   Overcast
11:15 AM 52.3 °F 51.1 °F 95% 30.00 in 7.0 mi SW 4.6 mph - N/A   Overcast
11:35 AM 52.7 °F 50.9 °F 94% 29.99 in 7.0 mi WSW 3.5 mph - N/A   Overcast
11:55 AM 54.0 °F 51.6 °F 92% 29.97 in 10.0 mi South 5.8 mph - N/A   Overcast
12:15 PM 54.3 °F 51.8 °F 91% 29.97 in 10.0 mi SSE 5.8 mph - N/A   Overcast
12:35 PM 54.7 °F 52.0 °F 91% 29.96 in 10.0 mi Calm Calm - N/A   Overcast
12:55 PM 57.2 °F 52.7 °F 85% 29.96 in 10.0 mi SSW 4.6 mph - N/A   Mostly Cloudy
1:15 PM 58.5 °F 52.9 °F 82% 29.95 in 10.0 mi Calm Calm - N/A   Clear
1:35 PM 59.4 °F 53.2 °F 80% 29.95 in 10.0 mi SE 4.6 mph - N/A   Clear
1:55 PM 61.2 °F 53.8 °F 77% 29.95 in 10.0 mi Calm Calm - N/A   Clear
2:15 PM 60.3 °F 53.2 °F 78% 29.94 in 10.0 mi South 5.8 mph - N/A   Clear
2:35 PM 61.0 °F 53.8 °F 77% 29.94 in 10.0 mi SSE 4.6 mph - N/A   Clear
2:55 PM 61.0 °F 53.6 °F 77% 29.95 in 10.0 mi Calm Calm - N/A   Clear
3:35 PM 61.7 °F 54.1 °F 76% 29.95 in 10.0 mi SSE 3.5 mph - N/A   Clear
3:55 PM 61.2 °F 53.8 °F 77% 29.95 in 10.0 mi South 3.5 mph - N/A   Clear
4:15 PM 60.3 °F 53.8 °F 79% 29.96 in 10.0 mi SSE 3.5 mph - N/A   Clear
4:35 PM 58.8 °F 53.4 °F 82% 29.95 in 10.0 mi SE 4.6 mph - N/A   Clear
4:55 PM 57.9 °F 53.2 °F 84% 29.96 in 10.0 mi SE 6.9 mph - N/A   Clear
5:15 PM 57.2 °F 53.6 °F 88% 29.97 in 10.0 mi SSE 3.5 mph - N/A   Clear
5:35 PM 56.3 °F 52.9 °F 88% 29.97 in 10.0 mi Calm Calm - N/A   Clear
5:55 PM 54.1 °F 52.5 °F 94% 29.97 in 10.0 mi Calm Calm - N/A   Clear
6:15 PM 53.4 °F 52.2 °F 95% 29.98 in 10.0 mi Calm Calm - N/A   Clear
6:35 PM 52.7 °F 51.6 °F 96% 29.99 in 10.0 mi Calm Calm - N/A   Clear
6:55 PM 50.9 °F 50.5 °F 99% 29.99 in 4.0 mi Calm Calm - N/A   Clear
7:15 PM 51.3 °F 51.3 °F 100% 30.00 in 3.0 mi Calm Calm - N/A   Clear
7:35 PM 49.1 °F 48.9 °F 99% 30.00 in 4.0 mi Calm Calm - N/A   Clear
7:55 PM 49.1 °F 48.9 °F 99% 30.00 in 0.8 mi Calm Calm - N/A   Mist
8:15 PM 46.4 °F 46.0 °F 99% 30.01 in 0.8 mi Calm Calm - N/A   Mist
8:35 PM 47.7 °F 47.3 °F 99% 30.01 in 5.0 mi Calm Calm - N/A   Scattered Clouds
9:15 PM 47.3 °F 47.3 °F 100% 30.02 in 0.8 mi Calm Calm - N/A   Mostly Cloudy
9:35 PM 48.6 °F 48.6 °F 100% 30.02 in 1.2 mi Calm Calm - N/A   Overcast
9:55 PM 48.6 °F 48.4 °F 99% 30.02 in 7.0 mi Calm Calm - N/A   Scattered Clouds
10:15 PM 52.2 °F 52.2 °F 100% 30.01 in 7.0 mi SSE 3.5 mph - N/A   Clear
10:35 PM 50.5 °F 50.0 °F 98% 30.02 in 7.0 mi Calm Calm - N/A   Scattered Clouds
10:55 PM 49.3 °F 48.6 °F 97% 30.04 in 7.0 mi North 10.4 mph - N/A   Scattered Clouds
11:35 PM 49.8 °F 49.3 °F 98% 30.05 in 5.0 mi Calm Calm - N/A   Scattered Clouds
11:55 PM 49.3 °F 49.1 °F 99% 30.05 in 2.0 mi Calm Calm - N/A   Overcast